Humidity-temperature Sensor

Selected Measurement Type: Relative Humidity

 
Relative Humidity [%]     6 entries per hour
Showing data from 3/20/2023 (00:00:00 Z) to 3/19/2023 (00:01:00 Z)
Previous Next [ Day | 3-Days | 7-Days ]
First Last
Prev [ Day | 3-Days | 7-Days ] Next
First Last

Start Time:     :
End Time:     :     
Time (in GMT) :00 :50 :40 :30 :20 :10
Previous Next [ Day | 3-Days | 7-Days ]
First Last
Prev [ Day | 3-Days | 7-Days ] Next
First Last


123 => good data
MM => data is determined as missing
-- => data not received/configured
Back to Top Back to Top
3/20/2023 00:00 to 23:10 80.70 80.14 80.16 80.31 81.04 82.31
3/19/2023 23:00 to 22:10 82.85 81.20 81.68 81.29 80.91 80.70
3/19/2023 22:00 to 21:10 80.45 80.54 79.80 79.80 79.64 79.05
3/19/2023 21:00 to 20:10 80.58 79.30 78.91 80.08 79.47 81.48
3/19/2023 20:00 to 19:10 80.31 78.11 77.61 79.43 81.31 80.62
3/19/2023 19:00 to 18:10 79.85 80.16 81.22 80.89 81.08 78.26
3/19/2023 18:00 to 17:10 79.95 81.27 80.70 82.89 81.41 80.56
3/19/2023 17:00 to 16:10 80.74 79.18 82.06 83.88 80.54 87.28
3/19/2023 16:00 to 15:10 87.32 87.72 87.03 86.99 86.03 83.77
3/19/2023 15:00 to 14:10 83.40 83.12 86.55 87.80 88.26 84.73
3/19/2023 14:00 to 13:10 86.03 86.84 84.17 84.65 87.49 88.53
3/19/2023 13:00 to 12:10 88.26 88.43 87.11 88.74 89.85 89.91
3/19/2023 12:00 to 11:10 90.20 89.51 88.53 87.63 86.07 83.25
3/19/2023 11:00 to 10:10 83.92 84.86 85.23 86.46 87.57 89.95
3/19/2023 10:00 to 9:10 89.35 87.11 89.07 88.11 87.38 86.51
3/19/2023 09:00 to 8:10 84.34 85.36 85.71 85.65 88.05 87.76
3/19/2023 08:00 to 7:10 87.15 85.71 85.34 85.36 85.34 84.71
3/19/2023 07:00 to 6:10 84.59 81.73 81.29 85.04 88.30 86.92
3/19/2023 06:00 to 5:10 87.86 87.99 89.26 88.99 90.31 87.93
3/19/2023 05:00 to 4:10 84.84 85.65 87.03 86.51 89.49 89.39
3/19/2023 04:00 to 3:10 87.80 86.51 83.37 82.69 81.75 81.06
3/19/2023 03:00 to 2:10 78.13 79.85 81.77 84.48 84.06 85.48
3/19/2023 02:00 to 1:10 84.29 83.79 85.11 83.54 83.44 82.27
3/19/2023 01:00 to 0:10 82.52 82.73 83.25 84.02 86.19 85.82